Wind_Speed
42 40 40 39 37 36 35 35 35 32 31 29 28 28 28 28 27 26 26 26 26 26 27 28 28 29 30 31 33 34 35 36 36 37 36 36 38 39 40 41 42 44 44 44
44 42 42 42 40 38 37 36 35 34 33 31 31 29 28 28 28 28 27 27 27 27 27 27 28 29 30 32 33 34 35 35 35 35 35 35 36 37 37 39 40 42 43 43
43 42 43 45 41 40 38 37 37 36 33 33 33 32 31 30 30 29 28 28 28 28 28 28 29 29 30 31 32 33 33 34 34 33 34 35 36 36 37 37 38 39 40 41
42 42 45 43 41 41 41 39 38 37 35 34 34 33 33 32 31 31 30 29 30 29 29 29 30 30 30 30 30 31 32 32 33 33 34 36 37 37 37 37 38 38 39 41
43 44 44 42 41 40 41 40 39 38 37 36 36 35 34 34 33 32 32 30 31 31 31 31 30 31 32 31 31 32 33 33 33 34 35 36 36 37 38 38 38 37 38 39
43 43 43 42 41 41 41 42 40 38 37 37 37 37 35 35 34 33 33 32 33 32 32 32 32 32 32 31 32 32 33 33 34 35 36 36 37 38 38 39 38 38 39 40
42 43 44 42 42 42 42 41 40 40 39 38 38 37 36 35 35 34 34 34 34 34 33 33 33 32 32 32 32 32 33 34 34 35 36 36 36 37 38 39 39 39 40 40
40 42 42 41 42 42 41 40 40 40 39 38 38 37 36 36 36 35 35 35 35 34 34 33 33 33 33 33 33 33 33 34 35 36 36 36 37 37 38 38 39 40 41 41
39 40 40 40 40 40 41 41 40 39 39 39 39 38 38 37 37 36 36 35 35 34 34 33 33 33 33 34 34 34 34 35 35 36 36 36 36 37 37 38 39 40 41 41
36 37 38 39 39 40 40 40 40 40 39 39 39 39 39 38 37 37 37 36 35 35 34 34 35 35 35 35 35 35 35 35 35 35 36 36 36 37 37 38 39 39 40 41
36 36 38 39 39 39 41 41 40 40 39 39 39 39 39 39 39 39 38 37 37 36 36 36 37 37 37 37 36 36 37 36 36 36 36 37 37 38 39 39 39 39 40 41
35 35 36 37 38 38 39 39 40 41 41 41 40 40 40 40 39 39 38 38 37 38 38 38 38 38 37 37 38 37 37 37 37 37 37 38 38 38 38 39 39 40 40 41
34 35 36 35 36 36 37 38 38 40 41 41 40 40 40 39 39 39 39 39 39 39 39 39 39 38 38 38 38 38 38 39 39 39 38 39 39 40 40 40 41 41 41 41
33 34 35 36 36 35 35 36 37 37 38 40 39 39 39 39 38 39 39 39 40 40 40 39 39 39 40 40 40 39 39 40 40 39 39 39 40 40 41 41 41 41 41 41
31 31 32 33 34 34 35 36 37 38 38 39 39 39 38 39 39 39 39 39 39 39 39 39 39 39 39 39 39 39 39 39 40 40 40 41 41 41 41 42 42 41 41 42
30 30 31 31 31 32 35 36 37 38 38 38 39 39 39 39 39 39 39 40 40 39 39 39 38 38 38 39 39 39 39 40 40 40 41 41 42 42 42 43 43 43 43 44
28 29 30 30 30 31 32 33 35 37 38 38 38 38 38 38 39 39 40 40 40 40 39 39 38 38 38 39 39 39 40 40 40 41 41 41 42 43 44 44 44 44 44 44
28 29 30 31 31 31 32 33 34 35 36 37 37 38 38 37 37 37 38 38 38 37 37 38 38 38 39 39 40 40 41 41 41 42 43 43 44 44 44 44 44 44 44 44
28 29 29 30 31 33 33 34 34 35 35 35 36 36 37 37 36 36 36 36 36 35 36 37 38 38 39 39 40 41 42 42 43 43 44 44 44 44 44 44 43 43 43 43
26 27 27 28 29 31 32 33 34 34 35 35 35 35 35 36 36 36 36 36 37 37 36 37 37 37 38 38 38 39 40 41 42 42 42 42 42 42 42 42 42 42 42 42
25 25 26 27 28 29 31 31 32 32 32 33 33 33 34 35 35 36 36 35 36 36 36 36 37 37 37 37 37 37 37 38 39 39 39 39 40 40 40 40 41 41 40 40
25 26 26 27 28 28 29 30 30 31 31 32 32 32 33 34 34 34 35 35 34 35 35 35 36 37 36 36 36 36 36 36 36 37 37 37 37 37 37 37 37 37 37 37
25 25 26 26 26 27 28 29 29 30 30 30 31 31 32 33 33 34 34 34 34 34 34 34 35 35 35 35 35 35 35 35 35 35 34 34 35 35 35 34 34 34 33 33
25 26 26 26 26 26 27 28 29 29 29 30 31 31 32 32 32 33 33 32 32 32 33 33 34 34 34 34 34 34 33 33 33 33 33 33 33 33 32 31 31 31 32 32
25 25 26 26 26 26 26 27 27 28 29 29 29 30 30 30 30 30 30 30 30 30 31 31 32 32 32 32 32 32 32 31 31 31 30 30 30 30 30 30 30 31 31 30
23 24 24 24 24 25 25 25 26 26 27 27 27 28 28 28 27 27 27 28 28 28 29 29 29 30 30 30 30 30 30 30 29 29 29 28 28 28 28 29 28 28 28 28
21 22 22 23 23 23 24 24 24 24 24 24 25 26 26 26 26 26 26 26 26 26 27 27 27 27 28 29 29 29 29 28 28 28 27 27 27 27 27 27 26 26 26 26
Wind_Direction
257 257 259 260 261 262 264 266 268 270 272 273 275 277 279 279 279 280 279 277 276 273 268 266 264 264 264 263 261 260 259 259 259 258 259 259 258 260 261 262 261 261 262 260
257 256 256 257 258 260 262 265 268 269 269 271 270 273 276 277 277 277 277 277 277 274 271 269 267 266 266 265 263 261 260 261 261 262 261 261 261 262 264 265 264 263 263 262
257 257 257 256 258 260 263 265 267 268 269 270 270 271 273 274 275 276 275 275 275 274 272 270 268 267 267 265 264 263 262 262 261 263 264 263 264 263 265 266 267 265 264 264
257 258 259 259 260 261 262 264 266 267 268 269 270 271 271 272 273 274 275 274 273 273 271 270 269 267 267 266 264 263 263 261 261 263 264 264 265 265 265 268 269 267 265 264
257 259 260 261 261 263 264 264 265 267 268 269 269 269 270 270 271 273 274 273 272 272 272 271 269 268 267 265 264 263 262 261 261 262 264 265 266 266 266 268 269 268 267 268
256 258 260 262 263 263 264 264 264 266 267 267 267 268 269 269 270 271 272 272 272 272 272 271 270 269 266 265 264 263 262 263 263 264 266 267 267 267 267 268 269 269 269 269
255 257 259 261 263 263 264 264 264 265 265 265 266 267 268 268 269 269 269 270 271 272 272 272 271 269 267 266 265 265 264 264 265 267 268 269 269 268 268 269 270 271 271 270
256 256 258 260 262 262 263 263 263 264 264 264 265 266 267 268 269 269 269 270 270 270 271 271 270 269 267 267 267 266 266 266 267 268 269 269 270 270 271 271 272 272 272 272
255 256 257 258 260 261 261 262 262 262 263 264 265 265 267 268 268 268 269 270 270 270 270 270 270 269 268 267 267 266 266 267 267 268 269 270 271 271 272 273 272 272 272 272
252 253 254 255 257 258 259 260 261 261 262 263 264 265 265 266 267 268 269 270 270 269 269 269 269 269 268 268 267 266 266 267 268 269 270 270 270 271 272 273 273 272 272 272
250 252 253 253 254 256 257 258 259 259 261 262 264 265 265 265 265 266 267 268 268 269 268 269 269 269 269 268 267 267 266 267 267 268 269 269 270 272 273 273 273 273 273 273
252 252 255 256 256 257 258 258 258 260 261 262 263 264 264 264 264 264 265 266 267 268 269 269 270 270 269 268 268 268 267 268 269 269 270 270 271 272 273 274 274 274 273 273
252 253 254 256 258 259 259 261 261 261 261 262 263 264 264 263 263 264 265 266 267 268 269 269 270 270 269 269 268 268 268 269 270 270 270 271 271 272 273 273 275 276 275 275
254 254 255 257 259 259 260 261 262 263 263 263 263 264 263 263 263 265 266 266 267 268 268 269 270 270 269 270 270 270 271 271 271 271 271 272 273 274 274 274 275 275 276 276
258 258 259 260 260 260 260 261 262 264 266 265 264 264 265 265 265 266 267 267 268 268 268 270 270 270 270 270 270 271 273 273 273 273 273 274 275 275 276 276 276 276 277 277
260 260 260 261 263 264 264 264 265 265 266 267 265 265 266 267 268 268 268 269 268 268 269 270 270 270 269 270 271 272 273 274 274 274 275 276 276 277 277 278 277 277 277 278
262 261 261 263 265 267 266 266 266 267 267 267 266 265 266 267 268 269 268 268 268 268 268 268 269 269 269 270 271 272 273 274 274 274 275 275 276 277 278 278 278 278 278 279
265 264 264 265 266 266 266 267 268 268 268 267 267 267 266 266 267 268 268 268 268 268 269 268 268 269 270 271 272 272 273 273 274 275 275 275 276 277 278 278 279 279 279 279
269 268 269 269 269 268 268 268 268 268 268 268 268 268 267 267 268 269 269 269 269 269 270 270 270 271 273 273 273 273 273 274 275 275 276 276 276 276 277 278 278 279 279 278
270 270 271 271 270 270 271 271 269 268 268 268 268 267 267 268 270 270 271 271 272 271 272 272 272 273 273 274 274 274 275 275 276 276 277 277 277 277 277 277 277 278 278 278
272 272 272 272 272 273 274 272 270 269 269 269 268 268 268 269 270 271 272 272 272 273 273 273 273 273 273 273 274 275 276 276 277 277 278 278 278 278 278 277 277 277 278 278
276 276 276 275 275 275 275 274 273 272 270 269 269 270 270 270 271 272 273 272 272 272 273 273 273 273 273 274 275 275 276 277 277 277 278 278 279 279 279 278 278 278 278 277
279 278 278 278 278 277 277 277 275 274 272 271 271 271 272 272 273 273 274 273 273 273 273 273 273 273 273 274 275 276 277 277 277 277 278 279 279 279 279 278 278 278 278 277
281 282 281 281 280 279 278 277 276 275 275 274 274 274 274 274 274 275 274 273 273 273 273 273 274 274 274 274 275 276 276 277 277 278 278 279 279 278 278 278 278 278 278 279
284 284 283 282 281 281 280 280 279 278 277 277 277 276 276 275 274 273 274 274 274 274 274 274 274 274 274 274 274 274 275 276 278 279 279 279 279 279 278 278 278 279 279 279
285 285 284 284 283 282 282 282 282 281 279 278 277 277 276 276 275 274 273 274 274 275 276 276 276 275 275 275 276 276 276 276 278 279 279 279 280 280 279 279 279 279 279 279
288 287 286 286 286 286 285 285 284 283 282 280 280 278 277 276 275 275 274 275 276 277 278 277 277 277 277 277 276 276 275 276 276 278 279 279 280 281 281 280 279 280 281 281
Height
5593 5597 5598 5600 5603 5604 5605 5607 5608 5611 5611 5611 5610 5609 5609 5608 5607 5606 5605 5604 5604 5604 5603 5603 5603 5603 5604 5604 5605 5606 5607 5608 5609 5611 5612 5613 5614 5615 5616 5617 5618 5620 5622 5623
5582 5586 5587 5589 5593 5594 5596 5598 5599 5600 5602 5603 5602 5601 5601 5600 5599 5599 5598 5597 5597 5596 5596 5595 5595 5595 5595 5596 5596 5597 5598 5599 5600 5601 5602 5603 5604 5605 5606 5607 5608 5609 5610 5611
5570 5574 5574 5578 5584 5585 5587 5588 5589 5590 5593 5593 5593 5593 5593 5592 5591 5591 5590 5590 5589 5589 5588 5588 5587 5587 5587 5587 5587 5588 5589 5589 5591 5592 5592 5594 5595 5595 5596 5597 5598 5598 5598 5600
5559 5562 5563 5571 5573 5575 5576 5578 5579 5580 5582 5583 5583 5584 5583 5583 5583 5583 5582 5581 5581 5580 5580 5579 5579 5579 5579 5578 5579 5580 5580 5581 5581 5582 5583 5584 5585 5585 5586 5587 5587 5587 5588 5589
5548 5549 5552 5558 5562 5563 5565 5567 5569 5570 5572 5572 5573 5573 5574 5574 5574 5574 5574 5573 5572 5572 5571 5571 5571 5570 5570 5570 5570 5571 5572 5572 5573 5573 5574 5574 5575 5575 5576 5576 5576 5576 5577 5577
5537 5539 5541 5548 5550 5551 5554 5555 5558 5559 5561 5562 5562 5563 5565 5564 5564 5564 5564 5564 5563 5563 5563 5562 5562 5562 5561 5561 5562 5562 5563 5563 5564 5564 5565 5565 5565 5565 5565 5565 5566 5566 5566 5566
5526 5528 5530 5536 5538 5540 5543 5545 5546 5547 5549 5550 5551 5552 5553 5553 5554 5554 5554 5554 5554 5554 5554 5553 5553 5552 5552 5552 5553 5553 5553 5554 5554 5554 5555 5555 5555 5555 5555 5555 5555 5555 5555 5555
5516 5517 5523 5526 5527 5529 5530 5532 5534 5535 5537 5538 5540 5541 5542 5542 5543 5543 5544 5544 5544 5544 5544 5543 5543 5543 5543 5543 5543 5543 5543 5544 5544 5544 5544 5544 5544 5544 5544 5544 5544 5544 5544 5543
5505 5509 5511 5513 5514 5516 5518 5520 5522 5524 5525 5527 5528 5530 5531 5532 5532 5533 5533 5533 5533 5533 5533 5533 5533 5533 5533 5533 5533 5533 5534 5534 5534 5534 5534 5534 5533 5533 5533 5533 5532 5532 5532 5532
5493 5496 5499 5501 5503 5505 5507 5509 5510 5512 5514 5515 5517 5518 5520 5521 5521 5522 5522 5523 5523 5523 5523 5523 5523 5523 5523 5523 5523 5523 5523 5523 5523 5523 5523 5522 5522 5522 5522 5522 5521 5520 5520 5520
5483 5486 5488 5490 5492 5494 5496 5497 5499 5501 5502 5504 5505 5507 5508 5509 5510 5511 5511 5512 5512 5512 5512 5512 5512 5512 5512 5512 5512 5512 5512 5512 5512 5512 5512 5511 5511 5511 5511 5510 5509 5509 5508 5508
5473 5476 5478 5480 5482 5483 5485 5486 5488 5489 5491 5492 5493 5495 5496 5497 5498 5499 5499 5500 5500 5500 5500 5500 5500 5500 5501 5501 5501 5501 5501 5501 5500 5500 5500 5500 5500 5500 5498 5498 5497 5496 5496 5495
5463 5465 5467 5469 5471 5472 5474 5475 5477 5478 5479 5481 5482 5483 5484 5485 5486 5487 5487 5488 5488 5488 5488 5488 5488 5489 5489 5489 5489 5489 5489 5489 5489 5489 5489 5488 5488 5488 5487 5486 5485 5484 5483 5482
5454 5455 5457 5459 5460 5462 5463 5465 5466 5467 5468 5469 5470 5471 5472 5473 5474 5475 5475 5476 5476 5476 5476 5476 5476 5477 5477 5477 5477 5477 5477 5477 5477 5477 5477 5476 5476 5475 5475 5474 5474 5473 5471 5470
5444 5446 5447 5448 5450 5452 5453 5454 5455 5456 5457 5457 5458 5460 5460 5461 5462 5463 5463 5463 5464 5464 5464 5464 5464 5464 5464 5465 5465 5465 5465 5464 5464 5464 5464 5464 5463 5463 5462 5462 5461 5460 5460 5458
5435 5436 5438 5439 5440 5441 5442 5443 5444 5445 5445 5446 5447 5448 5449 5449 5450 5451 5451 5451 5451 5451 5452 5452 5452 5452 5452 5453 5453 5453 5453 5452 5452 5452 5452 5451 5450 5450 5449 5449 5448 5447 5447 5446
5426 5428 5429 5430 5431 5431 5432 5432 5433 5434 5434 5435 5435 5436 5437 5437 5438 5438 5439 5439 5439 5439 5439 5440 5440 5440 5440 5440 5441 5441 5440 5440 5440 5439 5439 5438 5438 5437 5436 5436 5435 5434 5433 5432
5418 5419 5420 5421 5421 5422 5422 5422 5423 5423 5423 5423 5424 5424 5425 5425 5426 5426 5426 5427 5427 5427 5427 5427 5428 5428 5428 5428 5428 5427 5427 5427 5427 5427 5426 5425 5425 5424 5423 5422 5421 5420 5420 5418
5410 5411 5411 5412 5412 5412 5412 5412 5412 5412 5412 5413 5413 5413 5414 5414 5414 5415 5415 5415 5415 5416 5416 5415 5415 5415 5415 5415 5414 5414 5414 5414 5413 5413 5412 5411 5411 5410 5409 5408 5407 5406 5405 5405
5402 5402 5403 5403 5403 5403 5402 5402 5402 5402 5402 5402 5402 5402 5403 5403 5403 5404 5404 5404 5404 5404 5404 5404 5403 5403 5403 5402 5402 5401 5401 5400 5400 5399 5398 5397 5397 5396 5395 5394 5393 5393 5392 5391
5394 5395 5395 5394 5394 5393 5393 5392 5392 5392 5392 5392 5392 5392 5392 5393 5393 5393 5393 5393 5393 5392 5392 5392 5392 5391 5391 5390 5390 5389 5388 5387 5387 5386 5385 5384 5383 5382 5382 5381 5380 5379 5378 5377
5387 5387 5386 5386 5385 5385 5384 5383 5383 5382 5382 5382 5382 5382 5382 5382 5382 5382 5382 5382 5382 5381 5381 5381 5380 5380 5379 5379 5378 5378 5377 5376 5375 5374 5373 5372 5371 5370 5369 5368 5367 5366 5366 5365
5380 5379 5378 5377 5377 5376 5375 5374 5373 5373 5373 5372 5372 5372 5372 5372 5372 5372 5372 5371 5371 5370 5370 5370 5369 5368 5368 5368 5367 5367 5366 5365 5364 5363 5361 5360 5359 5358 5357 5356 5356 5355 5354 5353
5372 5371 5370 5369 5368 5368 5367 5366 5365 5364 5364 5363 5363 5362 5362 5362 5362 5361 5361 5361 5360 5360 5359 5359 5358 5358 5357 5357 5356 5356 5355 5354 5353 5352 5351 5350 5348 5347 5346 5346 5345 5344 5343 5343
5364 5363 5362 5361 5360 5359 5358 5357 5356 5355 5355 5354 5353 5352 5352 5352 5352 5351 5351 5351 5350 5350 5349 5349 5348 5347 5347 5346 5345 5345 5344 5343 5342 5341 5340 5339 5338 5337 5336 5336 5335 5334 5333 5333
5357 5355 5354 5353 5352 5351 5350 5349 5348 5347 5346 5345 5344 5343 5343 5342 5342 5342 5341 5341 5341 5340 5340 5339 5338 5337 5336 5336 5335 5334 5334 5333 5332 5332 5331 5330 5329 5328 5327 5326 5325 5324 5324 5323
5350 5348 5347 5346 5345 5343 5342 5341 5340 5338 5337 5336 5335 5335 5334 5334 5333 5333 5333 5332 5332 5331 5330 5329 5328 5328 5327 5326 5325 5325 5324 5323 5323 5322 5321 5321 5320 5319 5318 5317 5316 5315 5315 5314